STARLINK-34499, 64709

Orbit data source: Space-Track

STARLINK-34499, 64709 is a payload satellite owned by SpaceX/Seattle (US) in LEO that was launched on Sat, 28 Jun 2025 UTC via an FALCON 9 launch vehicle from the Air Force Western Test Range (AFWTR). Payload-class satellites include a variety of spacecraft equipped with specific instruments for various scientific and technological missions. These include communications satellites like Starlink; space stations such as the ISS; scientific satellites like the Hubble; Earth observation satellites from companies like Planet Labs, Umbra, and HawkEye 360; GPS; miniature CubeSats for education and research; and military/defense satellites.

Loading next visibility...
Identifier
64709, 2025-142P
Orbit
LEO
Last TLE update
2 hours ago
Origin
Manufacturer
SpaceX/Seattle
Mission
Operational spacecraft
Bus & Motor
STARLINK V2MO, Unknown motor
Mass
575 kg wet, ~530 kg dry
Launch date (UTC)
2025-06-28 (3 weeks ago)
Launch vehicle
FALCON 9
Launch site
Air Force Western Test Range (AFWTR)
Object type
Payload
Rocket body
Debris
Shape & HBR
Unknown
Radar Cross Section
Large (>1 m²)

Expand to show TLE details & history

TLE from 2 hours ago
0 STARLINK-34499
1 64709U 25142P   25199.58335648 -.01242655  00000-0 -21499-1 0  9991
2 64709  69.9998 194.6413 0004041 279.5161 176.4672 15.53410418  4005
Epoch: 2025-07-18T14:00Z
TLE epoch observation values (Epoch: 2025-07-18T14:00:01.999Z)
Latitude
69.26251°
Longitude
155.06483°
Altitude
420.861 km
Speed
7.664 km/s
True Right ascension
20h 06m 49s
True Declination
69° 08' 34"
Sunlit
Object was in daylight at epoch
Visualization orbit readout
Latitude
-50.98583°
Longitude
21.18654°
Altitude
424.356 km
Speed
7.657 km/s
Apparent Right ascension
14h 27m 22s
Apparent Declination
-55° 11' 26"
Sunlit
Object is in daylight
Visualization observer readout
Local Sidereal Time
05:12:56
Azimuth
133.241° SE
Elevation
-58.795°
Doppler factor
1
Orbital elements
Apogee altitude
407.416 km
Perigee altitude
401.934 km
Semi-major axis
6,782.812 km
Eccentricity
0.0004
Inclination
69.9998°
RAAN
194.6413°
Arg. of periapsis
279.5161°
True anomaly
176.47005°
Mean anomaly
176.4672°
Eccentric anomaly
176.46863°
Mean motion
3.88533 °/min
Orbital period
92.66 mins
BSTAR
-0.021499
Loading maneuver chart data...
Loading SW <> Apogee altitude chart data...
Loading historical data...
Loading historical data...
Loading historical data...
Loading historical data...
Loading historical data...
Loading historical data...
Loading historical data...
|